Weather History for KBML - January, 2002

Change the Weather History Date:

Saturday, January 19, 2002

  Actual Average Record
Temperature  
Mean Temperature 7 °F -  
Max Temperature 23 °F 19 °F - (-1)
Min Temperature -9 °F 0 °F - (-1)
Degree Days  
Heating Degree Days 58    
Moisture  
Dew Point 6 °F    
Average Humidity 76    
Maximum Humidity 95    
Minimum Humidity 46    
Precipitation  
Precipitation 0.00 in - - ()
Sea Level Pressure  
Sea Level Pressure 30.08 in    
Wind  
Wind Speed 2 mph (SSE)    
Max Wind Speed 9 mph    
Max Gust Speed -    
Visibility 9 miles    
Events Snow    
Averages and records for this station are not official NWS values.
T = Trace of Precipitation, MM = Missing Value Source: NWS Daily Summary

Daily Weather History Graph

Daily Weather History Graph

Search for Another Location

Airport or City:

Trip Planner

Search our weather history database for the weather conditions in past years. The results will help you decide how hot, cold, wet, or windy it might be!

Date:

Astronomy

Jan. 19, 2002 Rise Set
Actual Time 7:15 AM EST 4:35 PM EST
Civil Twilight 6:43 AM EST 5:07 PM EST
Nautical Twilight 6:07 AM EST 5:43 PM EST
Astronomical Twilight 5:32 AM EST 6:18 PM EST
Moon 10:29 AM EST (1/19) 10:41 PM EST (1/19)
Length of Visible Light 10h 24m
Length of Day
9h 20m
Waxing Crescent, 31% of the Moon is Illuminated
Jan 19
Waxing Crescent
Jan 21
First Quarter
Jan 28
Full
Feb 4
Last Quarter
Feb 12
New

Hourly Weather History & Observations

Time (EST) Temp. Windchill Dew Point Humidity Pressure Visibility Wind Dir Wind Speed Gust Speed Precip Events Conditions
12:52 AM 10.9 °F 4.7 °F 6.1 °F 81% 30.09 in 10.0 mi SW 3.5 mph - N/A   Scattered Clouds
1:52 AM 8.1 °F - 6.1 °F 92% 30.12 in 9.0 mi Calm Calm - N/A   Overcast
2:52 AM 9.0 °F 2.4 °F 7.0 °F 92% 30.14 in 5.0 mi SSE 3.5 mph - 0.00 in Snow Light Snow
3:52 AM 1.0 °F - -2.0 °F 87% 30.17 in 10.0 mi Calm Calm - 0.00 in   Scattered Clouds
4:52 AM -0.0 °F - -2.0 °F 91% 30.18 in 10.0 mi Calm Calm - N/A   Mostly Cloudy
5:52 AM -5.1 °F - -9.0 °F 83% 30.19 in 10.0 mi Calm Calm - N/A   Clear
6:52 AM -8.0 °F - -11.9 °F 83% 30.19 in 10.0 mi Calm Calm - N/A   Clear
7:52 AM -9.0 °F - -13.0 °F 83% 30.21 in 10.0 mi Calm Calm - N/A   Clear
8:52 AM -2.9 °F - -4.0 °F 95% 30.22 in 10.0 mi Calm Calm - N/A   Clear
9:52 AM 6.1 °F - 3.0 °F 87% 30.21 in 10.0 mi Calm Calm - N/A   Clear
10:52 AM 16.0 °F - 7.0 °F 68% 30.18 in 10.0 mi Calm Calm - N/A   Clear
11:52 AM 21.0 °F 16.2 °F 5.0 °F 50% 30.13 in 10.0 mi SW 3.5 mph - N/A   Clear
12:52 PM 21.0 °F 12.4 °F 5.0 °F 50% 30.12 in 10.0 mi South 6.9 mph - N/A   Partly Cloudy
1:52 PM 23.0 °F - 5.0 °F 46% 30.07 in 10.0 mi Calm Calm - N/A   Partly Cloudy
2:52 PM 23.0 °F 14.7 °F 7.0 °F 50% 30.05 in 10.0 mi Variable 6.9 mph - N/A   Clear
3:52 PM 21.9 °F 11.7 °F 8.1 °F 55% 30.02 in 10.0 mi SSE 9.2 mph - N/A   Mostly Cloudy
4:52 PM 21.0 °F 12.4 °F 8.1 °F 57% 30.02 in 10.0 mi SE 6.9 mph - N/A   Overcast
5:52 PM 21.0 °F 16.2 °F 8.1 °F 57% 30.01 in 10.0 mi SSE 3.5 mph - N/A   Overcast
6:52 PM 19.9 °F 13.4 °F 9.0 °F 62% 30.02 in 10.0 mi SE 4.6 mph - N/A   Overcast
7:52 PM 19.0 °F 10.0 °F 14.0 °F 81% 30.01 in 5.0 mi SE 6.9 mph - 0.00 in Snow Light Snow
8:52 PM 19.0 °F 13.9 °F 15.1 °F 85% 30.00 in 5.0 mi South 3.5 mph - 0.00 in Snow Light Snow
9:08 PM 17.6 °F 10.7 °F 15.8 °F 93% 29.91 in 3.0 mi South 4.6 mph - 0.00 in Snow Light Snow
9:52 PM 18.0 °F - 15.1 °F 88% 29.96 in 5.0 mi Calm Calm - 0.00 in Snow Light Snow
10:06 PM 17.6 °F 12.3 °F 15.8 °F 93% 29.88 in 9.0 mi South 3.5 mph - 0.00 in   Overcast
10:52 PM 17.1 °F - 15.1 °F 92% 29.94 in 6.0 mi Calm Calm - 0.00 in Snow Light Snow
11:52 PM 16.0 °F - 12.9 °F 88% 29.91 in 8.0 mi Calm Calm - 0.00 in   Overcast